[[{"header":{"parameterUnit":"m.s-1","parameterCategory":1,"la1":30.2991,"la2":30.254,"lo1":-89.0895,"lo2":-89.0444,"dy":0.0017,"dx":0.0017,"nx":28,"ny":28,"refTime":"2024-08-07T09:00:00:Z","depth":0,"parameterNumber":2,"parameterNumberName":"U-component_of_WINDS"},"data":[0,0,0,0,0,0,0,0,0,0,0,0,0,0,0,0,0,0,0,0,0,0,0,0,0,0,0,0,0,0,0,0,0,0,0,0,0,0,0,0,0,0,0,0,0,0,0,0,0,0,0,0,0,0,0,0,0,0,3.533,3.5331,0,3.5366,3.5366,3.5366,3.5316,3.5314,3.5312,3.5311,3.5351,3.5353,3.5356,0,0,0,0,0,0,0,0,0,0,0,0,0,3.5226,3.5228,3.533,3.5331,3.5331,3.5365,3.5366,3.5366,3.5316,3.5314,3.5312,3.531,3.535,3.5353,3.5356,0,0,0,0,0,0,0,0,0,0,0,0,0,3.5267,3.5229,3.533,3.531,3.5309,3.5365,3.5366,3.5367,3.5317,3.5314,3.5311,3.5309,3.5349,3.5353,3.5357,3.5436,0,0,3.5369,3.5371,0,0,0,0,0,0,0,0,3.5265,3.5271,3.5313,3.5312,3.531,3.5333,3.5344,3.539,3.5317,3.5314,3.5311,3.5308,3.5347,3.5351,3.5364,3.5438,3.5439,3.537,3.5372,3.5374,3.5375,0,0,0,0,0,0,0,3.5262,3.5269,3.5344,3.5313,3.5312,3.5301,3.5304,3.5352,3.5345,3.5314,3.531,3.5315,3.5346,3.536,3.5365,3.544,3.537,3.5373,3.5376,3.5377,3.5585,3.5588,0,0,0,0,0,0,3.5261,3.5267,3.5343,3.5345,3.528,3.5306,3.5309,3.5329,3.5345,3.5344,3.5317,3.5313,3.5355,3.536,3.5366,3.5462,3.5374,3.5378,3.538,3.5582,3.5586,3.5589,0,0,0,0,0,0,3.5259,3.5268,3.5342,3.5305,3.5314,3.531,3.5333,3.5331,3.5345,3.5347,3.5346,3.5332,3.5353,3.536,3.542,3.5463,3.538,3.5383,3.5578,3.5583,3.5587,3.5654,0,0,0,0,0,0,3.5256,3.5268,3.5296,3.5306,3.5316,3.5393,3.5336,3.5334,3.5352,3.5346,3.5361,3.5361,3.5351,3.5414,3.5424,3.5467,3.5386,3.5574,3.558,3.5586,3.5648,3.5661,3.5671,0,0,0,0,0,3.5252,3.5314,3.5298,3.5307,3.5351,3.5396,3.5401,3.5387,3.5355,3.5385,3.5387,3.5361,3.5456,3.542,3.5431,3.5476,3.5572,3.5579,3.5585,3.5643,3.5658,3.5671,0,0,0,0,0,0,3.5309,3.5314,3.5297,3.5363,3.5379,3.5387,3.5424,3.5403,3.543,3.5424,3.5406,3.541,3.5475,3.5481,3.5441,3.5556,3.5509,3.5518,3.5549,3.5564,3.5575,3.5573,3.539,0,0,0,0,0,3.5329,3.5363,3.5367,3.5425,3.5434,3.5428,3.5446,3.5434,3.5451,3.5458,3.5464,3.5483,3.5518,3.5541,3.5572,3.5649,3.5654,3.5686,3.5697,3.5707,3.5716,3.576,3.5776,3.5611,3.5611,3.5611,0,0,3.5371,3.5378,3.5401,3.5436,3.5447,3.5486,3.5434,3.5475,3.5504,3.5465,3.5522,3.5527,3.5547,3.5617,3.5647,3.5624,3.5762,3.5716,3.5723,3.5727,3.5769,3.5785,3.5799,3.5616,3.5615,3.5615,0,0,3.5467,3.5475,3.5526,3.5538,3.5556,3.5552,3.5565,3.5576,3.5578,3.5635,3.5607,3.5642,3.5701,3.5718,3.5734,3.584,3.5818,3.5851,3.5912,3.5956,3.5969,3.598,3.6021,3.6036,3.5859,3.586,3.586,0,3.5518,3.5572,3.5555,3.5599,3.5617,3.5583,3.5636,3.5649,3.5677,3.5691,3.5664,3.574,3.5751,3.5825,3.5852,3.5865,3.5881,3.5849,3.5968,3.5979,3.599,3.6029,3.6044,3.5864,3.5863,3.5863,3.5862,0,3.5635,3.5674,3.5713,3.574,3.5762,3.5811,3.5803,3.5828,3.5815,3.5815,3.5875,3.5887,3.5923,3.5939,3.5926,3.6013,3.5998,3.597,3.5923,3.601,3.6046,3.6061,3.5869,3.5868,3.5867,3.5866,0,0,3.5767,3.5786,3.5801,3.5815,3.5833,3.5863,3.5912,3.5946,3.5969,3.599,3.6032,3.6084,3.6059,3.6078,3.6067,3.6105,3.6193,3.6072,3.6073,3.6097,3.6293,3.6316,3.6334,3.6178,3.618,3.6183,3.6293,0,3.5866,3.5948,3.5935,3.6016,3.6053,3.6023,3.6066,3.6083,3.6085,3.6119,3.6121,3.616,3.6121,3.6133,3.6169,3.6174,3.6232,3.6166,3.622,3.6222,3.6218,3.6352,3.6376,3.6479,3.6306,3.6309,3.6311,0,3.5991,3.6017,3.6102,3.6117,3.6132,3.6171,3.6203,3.6234,3.6255,3.6254,3.6276,3.6259,3.6311,3.6262,3.6335,3.629,3.6311,3.6318,3.6321,3.6328,3.6273,3.6365,3.6511,3.6528,3.6332,3.633,3.6329,0,3.6084,3.6139,3.6198,3.621,3.6228,3.6257,3.6266,3.6284,3.6306,3.6334,3.6349,3.6384,3.6403,3.6431,3.6426,3.639,3.6502,3.6451,3.6505,3.6505,3.6531,3.653,3.6686,3.6541,3.6541,3.6541,3.654,0,3.6196,3.625,3.624,3.6276,3.6337,3.6322,3.6383,3.6389,3.6405,3.6445,3.642,3.6457,3.6446,3.6484,3.648,3.6544,3.6552,3.6555,3.6554,3.6558,3.6559,3.6574,3.6568,3.6545,3.6544,3.6543,3.6542,0,3.631,3.6304,3.6367,3.638,3.6384,3.6429,3.6441,3.6477,3.6477,3.6527,3.6538,3.654,3.6583,3.658,3.6629,3.6627,3.6706,3.6695,3.6699,3.6698,3.6753,3.6749,3.6926,3.695,3.6787,3.6789,3.679,0,3.6383,3.6424,3.6441,3.6465,3.6477,3.6515,3.6538,3.6526,3.6552,3.658,3.6613,3.6654,3.6687,3.6759,3.6766,3.6805,3.6796,3.6856,3.6802,3.6807,3.6801,3.68,3.6805,3.6867,3.6869,3.687,3.6871,0,3.6515,3.6511,3.6544,3.6577,3.6605,3.6631,3.6654,3.6676,3.6667,3.6697,3.6741,3.6767,3.6818,3.6861,3.6898,3.691,3.6891,3.6888,3.6903,3.691,3.6912,3.6915,3.6731,3.6884,3.6883,3.6882,3.6881,3.6881,3.6613,3.6649,3.6667,3.6706,3.6723,3.6746,3.6781,3.6786,3.6822,3.6862,3.6853,3.6904,3.6927,3.6975,3.6991,3.7033,3.7012,3.7033,3.7038,3.7045,3.7053,3.6903,3.7039,3.7039,3.7038,3.7038,3.7038,0,3.6746,3.6757,3.6792,3.6826,3.6858,3.6835,3.6861,3.6889,3.6934,3.6956,3.6989,3.7042,3.7084,3.7095,3.7136,3.7167,3.716,3.7179,3.7178,3.7182,3.7067,3.7051,3.7184,3.7184,3.7184,3.7184,3.7184,3.7184,3.6819,3.688,3.6879,3.6949,3.696,3.7009,3.7026,3.7049,3.7067,3.7126,3.7161,3.7167,3.7186,3.7229,3.7268,3.727,3.7288,3.7311,3.7311,3.7204,3.7189,3.7175,3.7161,3.7315,3.7315,3.7422,3.7423,3.7424]},{"header":{"parameterUnit":"m.s-1","parameterCategory":1,"la1":30.2991,"la2":30.254,"lo1":-89.0895,"lo2":-89.0444,"dy":0.0017,"dx":0.0017,"nx":28,"ny":28,"refTime":"2024-08-07T09:00:00:Z","depth":0,"parameterNumber":3,"parameterNumberName":"V-component_of_WINDS"},"data":[0,0,0,0,0,0,0,0,0,0,0,0,0,0,0,0,0,0,0,0,0,0,0,0,0,0,0,0,0,0,0,0,0,0,0,0,0,0,0,0,0,0,0,0,0,0,0,0,0,0,0,0,0,0,0,0,0,0,-3.4646,-3.4646,0,-3.4672,-3.4673,-3.4673,-3.4709,-3.4709,-3.471,-3.4711,-3.4734,-3.4734,-3.4734,0,0,0,0,0,0,0,0,0,0,0,0,0,-3.4625,-3.4625,-3.4646,-3.4646,-3.4647,-3.4672,-3.4673,-3.4673,-3.4709,-3.471,-3.471,-3.4711,-3.4734,-3.4734,-3.4734,0,0,0,0,0,0,0,0,0,0,0,0,0,-3.4641,-3.4625,-3.4646,-3.4668,-3.467,-3.4672,-3.4673,-3.4673,-3.4709,-3.471,-3.471,-3.4711,-3.4734,-3.4734,-3.4734,-3.4716,0,0,-3.4734,-3.4734,0,0,0,0,0,0,0,0,-3.464,-3.4641,-3.4664,-3.4666,-3.4669,-3.4688,-3.4674,-3.4687,-3.4708,-3.4694,-3.4711,-3.4712,-3.4718,-3.4719,-3.4722,-3.4717,-3.4718,-3.4734,-3.4734,-3.4734,-3.4734,0,0,0,0,0,0,0,-3.4639,-3.464,-3.4656,-3.4665,-3.4667,-3.4676,-3.4679,-3.4676,-3.47,-3.4695,-3.4698,-3.4701,-3.4719,-3.4722,-3.4723,-3.4718,-3.4734,-3.4734,-3.4734,-3.4734,-3.4701,-3.47,0,0,0,0,0,0,-3.4635,-3.4639,-3.4656,-3.4657,-3.4656,-3.4675,-3.4679,-3.4681,-3.47,-3.4704,-3.47,-3.4702,-3.4721,-3.4723,-3.4724,-3.4704,-3.4734,-3.4734,-3.4734,-3.4702,-3.4701,-3.4699,0,0,0,0,0,0,-3.4634,-3.4636,-3.4655,-3.4649,-3.4652,-3.4675,-3.4677,-3.4681,-3.4684,-3.4704,-3.4708,-3.4698,-3.4722,-3.4724,-3.4718,-3.4705,-3.4734,-3.4734,-3.4703,-3.4701,-3.47,-3.4664,0,0,0,0,0,0,-3.4633,-3.4635,-3.4629,-3.4649,-3.4652,-3.4649,-3.4676,-3.4681,-3.4684,-3.4688,-3.4704,-3.4707,-3.4723,-3.4718,-3.4718,-3.4706,-3.4735,-3.4704,-3.4702,-3.47,-3.4667,-3.4662,-3.4658,0,0,0,0,0,-3.4632,-3.4617,-3.4629,-3.463,-3.4645,-3.4648,-3.465,-3.467,-3.4683,-3.4677,-3.469,-3.4707,-3.4707,-3.4717,-3.4718,-3.4705,-3.4705,-3.4703,-3.4701,-3.4669,-3.4663,-3.4658,0,0,0,0,0,0,-3.4594,-3.462,-3.4633,-3.4624,-3.4634,-3.4654,-3.4647,-3.4663,-3.4668,-3.4671,-3.4694,-3.4697,-3.4688,-3.4697,-3.4707,-3.4689,-3.4708,-3.4706,-3.4684,-3.4679,-3.4674,-3.4672,-3.4735,0,0,0,0,0,-3.4584,-3.4586,-3.4608,-3.4598,-3.4602,-3.4624,-3.4626,-3.464,-3.4651,-3.4655,-3.4667,-3.4676,-3.4678,-3.4679,-3.4682,-3.4669,-3.4672,-3.4661,-3.4656,-3.4652,-3.465,-3.4643,-3.4638,-3.4693,-3.4693,-3.4693,0,0,-3.4564,-3.4579,-3.4578,-3.459,-3.46,-3.46,-3.4627,-3.4625,-3.4625,-3.4654,-3.465,-3.466,-3.4671,-3.4661,-3.4658,-3.4668,-3.4636,-3.465,-3.4646,-3.4646,-3.4641,-3.4635,-3.4631,-3.4691,-3.4691,-3.4692,0,0,-3.4528,-3.4539,-3.4532,-3.4542,-3.4556,-3.4571,-3.4569,-3.4588,-3.4596,-3.4592,-3.4614,-3.4614,-3.4618,-3.4625,-3.4629,-3.4598,-3.4613,-3.4598,-3.4574,-3.4567,-3.4563,-3.4559,-3.4547,-3.4543,-3.4596,-3.4596,-3.4596,0,-3.4501,-3.4503,-3.4526,-3.4524,-3.4529,-3.4557,-3.4549,-3.4557,-3.4571,-3.4573,-3.4585,-3.4591,-3.46,-3.4593,-3.4585,-3.4588,-3.4586,-3.4595,-3.4562,-3.4558,-3.4555,-3.4544,-3.454,-3.4594,-3.4594,-3.4594,-3.4594,0,-3.4469,-3.447,-3.4462,-3.4477,-3.4481,-3.4476,-3.4498,-3.4499,-3.4514,-3.4527,-3.4523,-3.4536,-3.4543,-3.4542,-3.4556,-3.4537,-3.4543,-3.4558,-3.4577,-3.4548,-3.4538,-3.4534,-3.4591,-3.4591,-3.4592,-3.4593,0,0,-3.4406,-3.4436,-3.4432,-3.444,-3.4459,-3.446,-3.4456,-3.4464,-3.4464,-3.4474,-3.4471,-3.4474,-3.4489,-3.4493,-3.4508,-3.4503,-3.4477,-3.4519,-3.4519,-3.451,-3.4456,-3.4444,-3.4439,-3.4488,-3.4487,-3.4486,-3.4455,0,-3.4373,-3.4369,-3.4391,-3.4382,-3.4383,-3.441,-3.4407,-3.4418,-3.4431,-3.4433,-3.4447,-3.4449,-3.4468,-3.4471,-3.4467,-3.4481,-3.4466,-3.4483,-3.4484,-3.4484,-3.4479,-3.4433,-3.442,-3.439,-3.4451,-3.4451,-3.445,0,-3.4333,-3.4342,-3.4332,-3.4353,-3.4354,-3.4351,-3.4361,-3.4363,-3.4376,-3.4386,-3.4392,-3.441,-3.4407,-3.4427,-3.4424,-3.4435,-3.4437,-3.4444,-3.4443,-3.4443,-3.4464,-3.4431,-3.4381,-3.4375,-3.4444,-3.4445,-3.4445,0,-3.4287,-3.4297,-3.4293,-3.4299,-3.4323,-3.432,-3.433,-3.4344,-3.4347,-3.4356,-3.4358,-3.4365,-3.4369,-3.4374,-3.4393,-3.4406,-3.4387,-3.4408,-3.4394,-3.4393,-3.4387,-3.4387,-3.4335,-3.439,-3.439,-3.439,-3.4391,0,-3.4247,-3.424,-3.4273,-3.4271,-3.4264,-3.4289,-3.4282,-3.4294,-3.4307,-3.4306,-3.4331,-3.433,-3.4356,-3.4357,-3.4372,-3.4367,-3.4369,-3.4376,-3.4379,-3.4373,-3.4372,-3.4373,-3.4375,-3.4389,-3.439,-3.439,-3.439,0,-3.4194,-3.4217,-3.4214,-3.4238,-3.4244,-3.4237,-3.4257,-3.4256,-3.4271,-3.427,-3.4271,-3.4295,-3.4298,-3.4318,-3.4326,-3.4336,-3.4325,-3.4333,-3.4321,-3.4323,-3.4307,-3.4308,-3.4253,-3.4247,-3.4307,-3.4306,-3.4306,0,-3.4166,-3.4162,-3.4186,-3.4188,-3.4197,-3.4201,-3.4205,-3.423,-3.4234,-3.4249,-3.4245,-3.4251,-3.4257,-3.4261,-3.4278,-3.4284,-3.4292,-3.4273,-3.4293,-3.4287,-3.4291,-3.429,-3.429,-3.4268,-3.4267,-3.4266,-3.4266,0,-3.4114,-3.4126,-3.4132,-3.4142,-3.4147,-3.4156,-3.4166,-3.4167,-3.4194,-3.4197,-3.4202,-3.4206,-3.4215,-3.422,-3.423,-3.4239,-3.4256,-3.426,-3.4257,-3.4249,-3.4241,-3.4245,-3.4308,-3.426,-3.4261,-3.4261,-3.4262,-3.4262,-3.4073,-3.407,-3.4087,-3.4093,-3.4104,-3.4114,-3.4113,-3.4129,-3.4134,-3.4144,-3.4159,-3.4161,-3.4175,-3.419,-3.4198,-3.42,-3.421,-3.4205,-3.4204,-3.4202,-3.4198,-3.4243,-3.4202,-3.4202,-3.4202,-3.4202,-3.4202,0,-3.4021,-3.4034,-3.4039,-3.4054,-3.4059,-3.4077,-3.409,-3.4092,-3.4095,-3.4107,-3.4113,-3.4119,-3.4124,-3.4142,-3.415,-3.4147,-3.4156,-3.4148,-3.4148,-3.415,-3.4189,-3.4191,-3.4142,-3.4142,-3.4142,-3.4142,-3.4142,-3.4142,-3.3995,-3.3992,-3.4006,-3.4008,-3.4021,-3.4025,-3.403,-3.4039,-3.4049,-3.4055,-3.406,-3.4073,-3.4087,-3.4096,-3.4102,-3.4107,-3.4108,-3.4097,-3.4105,-3.4141,-3.4147,-3.4152,-3.4154,-3.4098,-3.4098,-3.4065,-3.4065,-3.4065]}]]